McGregor, TX

3:34 PM CDT on October 20, 2017 (GMT -0500)
McGregor Executive

Weather History for KPWG - July, 2013

Change the Weather History Date:

Monday, July 8, 2013

  Actual Average Record
Temperature  
Mean Temperature 84 °F -  
Max Temperature 93 °F 90 °F 104 °F (2011)
Min Temperature 75 °F 71 °F 69 °F (2005)
Cooling Degree Days 19    
Growing Degree Days 34 (Base 50)    
Moisture  
Dew Point 67 °F    
Average Humidity 57    
Maximum Humidity 83    
Minimum Humidity 36    
Precipitation  
Precipitation 0.00 in - - ()
Sea Level Pressure  
Sea Level Pressure 30.05 in    
Wind  
Wind Speed 11 mph (South)    
Max Wind Speed 23 mph    
Max Gust Speed 31 mph    
Visibility 10 miles    
Events Thunderstorm    
Averages and records for this station are not official NWS values.
T = Trace of Precipitation, MM = Missing Value Source: NWS Daily Summary

Daily Weather History Graph

Daily Weather History Graph

Search for Another Location

Airport or City:

Trip Planner

Search our weather history database for the weather conditions in past years. The results will help you decide how hot, cold, wet, or windy it might be!

Date:

Astronomy

Jul. 08, 2013 Rise Set
Actual Time 6:31 AM CDT 8:37 PM CDT
Civil Twilight 6:03 AM CDT 9:04 PM CDT
Nautical Twilight 5:30 AM CDT 9:38 PM CDT
Astronomical Twilight 4:53 AM CDT 10:14 PM CDT
Moon 6:56 AM CDT (7/8) 8:47 PM CDT (7/8)
Length of Visible Light 15h 01m
Length of Day
14h 05m
New Moon, 0% of the Moon is Illuminated
Jul 8
New Moon
Jul 15
First Quarter
Jul 22
Full
Jul 29
Last Quarter
Aug 6
New

Hourly Weather History & Observations

Time (CDT) Temp. Heat Index Dew Point Humidity Pressure Visibility Wind Dir Wind Speed Gust Speed Precip Events Conditions
12:15 AM 82.4 °F 84.6 °F 66.2 °F 58% 30.00 in 10.0 mi South 8.1 mph - N/A   Clear
12:35 AM 82.4 °F 85.4 °F 68.0 °F 62% 30.00 in 10.0 mi South 9.2 mph - N/A   Clear
12:55 AM 80.6 °F 83.2 °F 68.0 °F 65% 30.00 in 10.0 mi South 9.2 mph - N/A   Clear
1:15 AM 80.6 °F 83.2 °F 68.0 °F 65% 29.99 in 10.0 mi South 10.4 mph - N/A   Clear
1:35 AM 80.6 °F 83.2 °F 68.0 °F 65% 30.00 in 10.0 mi South 8.1 mph - N/A   Clear
1:55 AM 80.6 °F 83.2 °F 68.0 °F 65% 30.00 in 10.0 mi SSE 9.2 mph - N/A   Clear
2:15 AM 78.8 °F - 68.0 °F 69% 30.00 in 10.0 mi SSE 9.2 mph - N/A   Partly Cloudy
2:35 AM 78.8 °F - 68.0 °F 69% 30.00 in 10.0 mi SSE 9.2 mph - N/A   Clear
2:55 AM 78.8 °F - 68.0 °F 69% 30.00 in 10.0 mi SSE 10.4 mph - N/A   Clear
3:15 AM 78.8 °F - 68.0 °F 69% 30.01 in 10.0 mi South 9.2 mph - N/A   Clear
3:35 AM 78.8 °F - 68.0 °F 69% 30.02 in 10.0 mi SSE 9.2 mph - N/A   Partly Cloudy
3:55 AM 78.8 °F - 68.0 °F 69% 30.03 in 10.0 mi SSE 8.1 mph - N/A   Mostly Cloudy
4:15 AM 78.8 °F - 68.0 °F 69% 30.03 in 10.0 mi SSE 9.2 mph - N/A   Overcast
4:35 AM 78.8 °F - 68.0 °F 69% 30.04 in 10.0 mi SSE 9.2 mph - N/A   Overcast
4:55 AM 78.8 °F - 69.8 °F 74% 30.04 in 10.0 mi SSE 11.5 mph - N/A   Mostly Cloudy
5:15 AM 77.0 °F - 69.8 °F 78% 30.05 in 10.0 mi SSE 11.5 mph - N/A   Mostly Cloudy
5:35 AM 77.0 °F - 69.8 °F 78% 30.05 in 10.0 mi SSE 10.4 mph - N/A   Mostly Cloudy
5:55 AM 77.0 °F - 69.8 °F 78% 30.05 in 10.0 mi SSE 10.4 mph - N/A   Partly Cloudy
6:15 AM 77.0 °F - 69.8 °F 78% 30.06 in 10.0 mi South 11.5 mph - N/A   Scattered Clouds
6:35 AM 77.0 °F - 69.8 °F 78% 30.06 in 10.0 mi South 10.4 mph - N/A   Scattered Clouds
6:55 AM 75.2 °F - 69.8 °F 83% 30.06 in 10.0 mi South 9.2 mph - N/A   Partly Cloudy
7:15 AM 77.0 °F - 69.8 °F 78% 30.07 in 10.0 mi South 6.9 mph - N/A   Clear
7:35 AM 78.8 °F - 69.8 °F 74% 30.08 in 10.0 mi South 9.2 mph - N/A   Clear
7:55 AM 78.8 °F - 69.8 °F 74% 30.09 in 10.0 mi South 8.1 mph - N/A   Scattered Clouds
8:15 AM 80.6 °F 83.9 °F 69.8 °F 70% 30.09 in 10.0 mi South 11.5 mph - N/A   Mostly Cloudy
8:35 AM 80.6 °F 83.9 °F 69.8 °F 70% 30.10 in 10.0 mi South 10.4 mph - N/A   Scattered Clouds
8:55 AM 80.6 °F 83.9 °F 69.8 °F 70% 30.10 in 10.0 mi South 10.4 mph - N/A Thunderstorm Thunderstorm
9:15 AM 82.4 °F 86.3 °F 69.8 °F 66% 30.11 in 10.0 mi South 11.5 mph - N/A   Mostly Cloudy
9:35 AM 82.4 °F 86.3 °F 69.8 °F 66% 30.10 in 10.0 mi SSW 12.7 mph - N/A   Overcast
9:55 AM 82.4 °F 86.3 °F 69.8 °F 66% 30.10 in 10.0 mi South 12.7 mph 18.4 mph N/A   Mostly Cloudy
10:15 AM 84.2 °F 87.3 °F 68.0 °F 58% 30.10 in 10.0 mi SSW 8.1 mph - N/A   Partly Cloudy
10:35 AM 87.8 °F 92.6 °F 69.8 °F 55% 30.10 in 10.0 mi SSW 9.2 mph - N/A   Scattered Clouds
10:55 AM 87.8 °F 92.6 °F 69.8 °F 55% 30.10 in 10.0 mi South 11.5 mph - N/A   Mostly Cloudy
11:15 AM 89.6 °F 94.7 °F 69.8 °F 52% 30.10 in 10.0 mi South 12.7 mph 17.3 mph N/A   Scattered Clouds
11:35 AM 89.6 °F 94.7 °F 69.8 °F 52% 30.09 in 10.0 mi South 10.4 mph 21.9 mph N/A   Scattered Clouds
11:55 AM 91.4 °F 95.4 °F 68.0 °F 46% 30.09 in 10.0 mi SSW 10.4 mph 16.1 mph N/A   Mostly Cloudy
12:15 PM 91.4 °F 95.4 °F 68.0 °F 46% 30.08 in 10.0 mi South 17.3 mph - N/A   Partly Cloudy
12:35 PM 91.4 °F 95.4 °F 68.0 °F 46% 30.07 in 10.0 mi South 11.5 mph 18.4 mph N/A   Partly Cloudy
12:55 PM 91.4 °F 95.4 °F 68.0 °F 46% 30.07 in 10.0 mi South 8.1 mph - N/A   Clear
1:15 PM 93.2 °F 97.7 °F 68.0 °F 44% 30.06 in 10.0 mi SSE 12.7 mph 20.7 mph N/A   Clear
1:35 PM 93.2 °F 96.2 °F 66.2 °F 41% 30.06 in 10.0 mi South 21.9 mph 26.5 mph N/A   Scattered Clouds
1:55 PM 91.4 °F 95.4 °F 68.0 °F 46% 30.07 in 10.0 mi South 19.6 mph 29.9 mph N/A   Mostly Cloudy
2:15 PM 89.6 °F 92.2 °F 66.2 °F 46% 30.07 in 10.0 mi South 23.0 mph 31.1 mph N/A   Partly Cloudy
2:35 PM 87.8 °F 90.4 °F 66.2 °F 49% 30.07 in 10.0 mi South 21.9 mph 27.6 mph N/A   Partly Cloudy
2:55 PM 84.2 °F 86.6 °F 66.2 °F 55% 30.07 in 10.0 mi South 17.3 mph 26.5 mph N/A   Scattered Clouds
3:15 PM 87.8 °F 90.4 °F 66.2 °F 49% 30.07 in 10.0 mi South 16.1 mph 21.9 mph N/A   Partly Cloudy
3:35 PM 87.8 °F 90.4 °F 66.2 °F 49% 30.07 in 10.0 mi South 13.8 mph - N/A   Clear
3:55 PM 89.6 °F 92.2 °F 66.2 °F 46% 30.07 in 10.0 mi South 18.4 mph 23.0 mph N/A   Clear
4:15 PM 89.6 °F 92.2 °F 66.2 °F 46% 30.06 in 10.0 mi SSW 17.3 mph 26.5 mph N/A   Clear
4:35 PM 89.6 °F 93.4 °F 68.0 °F 49% 30.05 in 10.0 mi South 17.3 mph 25.3 mph N/A   Clear
4:55 PM 91.4 °F 96.8 °F 69.8 °F 49% 30.05 in 10.0 mi South 17.3 mph 23.0 mph N/A   Clear
5:15 PM 91.4 °F 95.4 °F 68.0 °F 46% 30.04 in 10.0 mi SSW 15.0 mph 24.2 mph N/A   Partly Cloudy
5:35 PM 91.4 °F 94.0 °F 66.2 °F 43% 30.04 in 10.0 mi SSW 16.1 mph 23.0 mph N/A   Clear
5:55 PM 91.4 °F 94.0 °F 66.2 °F 43% 30.03 in 10.0 mi SSW 16.1 mph - N/A   Clear
6:15 PM 91.4 °F 93.2 °F 64.4 °F 41% 30.02 in 10.0 mi SSW 16.1 mph 24.2 mph N/A   Clear
6:35 PM 91.4 °F 92.1 °F 62.6 °F 38% 30.02 in 10.0 mi SSW 16.1 mph 20.7 mph N/A   Clear
6:55 PM 91.4 °F 91.4 °F 60.8 °F 36% 30.02 in 10.0 mi South 17.3 mph 23.0 mph N/A   Clear
7:15 PM 89.6 °F 89.5 °F 60.8 °F 38% 30.02 in 10.0 mi South 12.7 mph - N/A   Clear
7:35 PM 89.6 °F 89.5 °F 60.8 °F 38% 30.02 in 10.0 mi South 12.7 mph - N/A   Clear
7:55 PM 89.6 °F 88.9 °F 59.0 °F 36% 30.03 in 10.0 mi South 12.7 mph - N/A   Clear
8:15 PM 87.8 °F 87.6 °F 60.8 °F 40% 30.03 in 10.0 mi South 10.4 mph - N/A   Clear
8:35 PM 87.8 °F 88.5 °F 62.6 °F 43% 30.04 in 10.0 mi South 11.5 mph - N/A   Clear
8:55 PM 84.2 °F 85.0 °F 62.6 °F 48% 30.04 in 10.0 mi South 8.1 mph - N/A   Clear
9:15 PM 82.4 °F 83.4 °F 62.6 °F 51% 30.04 in 10.0 mi South 8.1 mph - N/A   Clear
9:35 PM 82.4 °F 83.4 °F 62.6 °F 51% 30.05 in 10.0 mi South 9.2 mph - N/A   Clear
9:55 PM 82.4 °F 82.9 °F 60.8 °F 48% 30.06 in 10.0 mi South 8.1 mph - N/A   Clear
10:15 PM 82.4 °F 82.9 °F 60.8 °F 48% 30.08 in 10.0 mi South 6.9 mph - N/A   Clear
10:35 PM 80.6 °F 81.5 °F 60.8 °F 51% 30.09 in 10.0 mi South 6.9 mph - N/A   Clear
10:55 PM 80.6 °F 81.5 °F 60.8 °F 51% 30.09 in 10.0 mi South 8.1 mph - N/A   Clear
11:15 PM 80.6 °F 81.5 °F 60.8 °F 51% 30.10 in 10.0 mi South 10.4 mph - N/A   Clear
11:35 PM 80.6 °F 81.8 °F 62.6 °F 54% 30.10 in 10.0 mi South 10.4 mph - N/A   Clear
11:55 PM 80.6 °F 81.8 °F 62.6 °F 54% 30.10 in 10.0 mi South 13.8 mph - N/A   Clear